Time,TemperatureF,DewpointF,PressureIn,WindDirection,WindDirectionDegrees,WindSpeedMPH,WindSpeedGustMPH,Humidity,HourlyPrecipIn,Conditions,Clouds,dailyrainin,SoftwareType,DateUTC
2013-10-05 00:22:00,71.0,-99.9,-100.00,North,-999,-999.0,-999.0,-999,0.00,,,0.00,,2013-10-05 05:22:00,
2013-10-05 00:34:00,71.0,-99.9,-100.00,North,-999,-999.0,-999.0,-999,0.00,,,0.00,,2013-10-05 05:34:00,
2013-10-05 00:43:00,71.0,-99.9,-100.00,North,-999,-999.0,-999.0,-999,0.00,,,0.00,,2013-10-05 05:43:00,
2013-10-05 01:22:00,70.0,-99.9,-100.00,North,-999,-999.0,-999.0,-999,0.00,,,0.00,,2013-10-05 06:22:00,
2013-10-05 01:32:00,70.0,-99.9,-100.00,North,-999,-999.0,-999.0,-999,0.00,,,0.00,,2013-10-05 06:32:00,
2013-10-05 01:43:00,70.0,-99.9,-100.00,North,-999,-999.0,-999.0,-999,0.00,,,0.00,,2013-10-05 06:43:00,
2013-10-05 02:22:00,70.0,-99.9,-100.00,North,-999,-999.0,-999.0,-999,0.00,,,0.00,,2013-10-05 07:22:00,
2013-10-05 02:32:00,70.0,-99.9,-100.00,North,-999,-999.0,-999.0,-999,0.00,,,0.00,,2013-10-05 07:32:00,
2013-10-05 02:42:00,70.0,-99.9,-100.00,North,-999,-999.0,-999.0,-999,0.00,,,0.00,,2013-10-05 07:42:00,
2013-10-05 03:23:00,71.0,-99.9,-100.00,North,-999,-999.0,-999.0,-999,0.00,,,0.00,,2013-10-05 08:23:00,
2013-10-05 03:32:00,71.0,-99.9,-100.00,North,-999,-999.0,-999.0,-999,0.00,,,0.00,,2013-10-05 08:32:00,
2013-10-05 03:42:00,71.0,-99.9,-100.00,North,-999,-999.0,-999.0,-999,0.00,,,0.00,,2013-10-05 08:42:00,
2013-10-05 04:22:00,71.0,-99.9,-100.00,North,-999,-999.0,-999.0,-999,0.00,,,0.00,,2013-10-05 09:22:00,
2013-10-05 04:34:00,71.0,-99.9,-100.00,North,-999,-999.0,-999.0,-999,0.00,,,0.00,,2013-10-05 09:34:00,
2013-10-05 04:43:00,71.0,-99.9,-100.00,North,-999,-999.0,-999.0,-999,0.00,,,0.00,,2013-10-05 09:43:00,
2013-10-05 05:23:00,70.0,-99.9,-100.00,North,-999,-999.0,-999.0,-999,0.00,,,0.00,,2013-10-05 10:23:00,
2013-10-05 05:32:00,70.0,-99.9,-100.00,North,-999,-999.0,-999.0,-999,0.00,,,0.00,,2013-10-05 10:32:00,
2013-10-05 05:43:00,70.0,-99.9,-100.00,North,-999,-999.0,-999.0,-999,0.00,,,0.00,,2013-10-05 10:43:00,
2013-10-05 06:22:00,71.0,-99.9,-100.00,North,-999,-999.0,-999.0,-999,0.00,,,0.00,,2013-10-05 11:22:00,
2013-10-05 06:33:00,71.0,-99.9,-100.00,North,-999,-999.0,-999.0,-999,0.00,,,0.00,,2013-10-05 11:33:00,
2013-10-05 06:43:00,71.0,-99.9,-100.00,North,-999,-999.0,-999.0,-999,0.00,,,0.00,,2013-10-05 11:43:00,
2013-10-05 07:23:00,69.0,-99.9,-100.00,North,-999,-999.0,-999.0,-999,0.00,,,0.00,,2013-10-05 12:23:00,
2013-10-05 07:32:00,69.0,-99.9,-100.00,North,-999,-999.0,-999.0,-999,0.00,,,0.00,,2013-10-05 12:32:00,
2013-10-05 07:42:00,69.0,-99.9,-100.00,North,-999,-999.0,-999.0,-999,0.00,,,0.00,,2013-10-05 12:42:00,
2013-10-05 08:22:00,71.0,-99.9,-100.00,North,-999,-999.0,-999.0,-999,0.00,,,-99.99,,2013-10-05 13:22:00,
2013-10-05 08:32:00,71.0,-99.9,-100.00,North,-999,-999.0,-999.0,-999,0.00,,,-99.99,,2013-10-05 13:32:00,
2013-10-05 08:42:00,71.0,-99.9,-100.00,North,-999,-999.0,-999.0,-999,0.00,,,-99.99,,2013-10-05 13:42:00,
2013-10-05 09:22:00,78.0,-99.9,-100.00,North,-999,-999.0,-999.0,-999,0.00,,,0.00,,2013-10-05 14:22:00,
2013-10-05 09:32:00,78.0,-99.9,-100.00,North,-999,-999.0,-999.0,-999,0.00,,,0.00,,2013-10-05 14:32:00,
2013-10-05 09:42:00,78.0,-99.9,-100.00,North,-999,-999.0,-999.0,-999,0.00,,,0.00,,2013-10-05 14:42:00,
2013-10-05 10:22:00,72.0,-99.9,-100.00,North,-999,-999.0,-999.0,-999,0.00,,,0.00,,2013-10-05 15:22:00,
2013-10-05 10:33:00,72.0,-99.9,-100.00,North,-999,-999.0,-999.0,-999,0.00,,,0.00,,2013-10-05 15:33:00,
2013-10-05 10:44:00,72.0,-99.9,-100.00,North,-999,-999.0,-999.0,-999,0.00,,,0.00,,2013-10-05 15:44:00,
2013-10-05 11:24:00,71.0,-99.9,-100.00,North,-999,-999.0,-999.0,-999,0.00,,,0.00,,2013-10-05 16:24:00,
2013-10-05 11:33:00,71.0,-99.9,-100.00,North,-999,-999.0,-999.0,-999,0.00,,,0.00,,2013-10-05 16:33:00,
2013-10-05 11:43:00,71.0,-99.9,-100.00,North,-999,-999.0,-999.0,-999,0.00,,,0.00,,2013-10-05 16:43:00,
2013-10-05 12:23:00,71.0,-99.9,-100.00,North,-999,-999.0,-999.0,-999,0.00,,,0.00,,2013-10-05 17:23:00,
2013-10-05 12:33:00,71.0,-99.9,-100.00,North,-999,-999.0,-999.0,-999,0.00,,,0.00,,2013-10-05 17:33:00,
2013-10-05 12:43:00,71.0,-99.9,-100.00,North,-999,-999.0,-999.0,-999,0.00,,,0.00,,2013-10-05 17:43:00,
2013-10-05 13:22:00,70.0,-99.9,-100.00,North,-999,-999.0,-999.0,-999,0.00,,,0.00,,2013-10-05 18:22:00,
2013-10-05 13:32:00,70.0,-99.9,-100.00,North,-999,-999.0,-999.0,-999,0.00,,,0.00,,2013-10-05 18:32:00,
2013-10-05 13:42:00,70.0,-99.9,-100.00,North,-999,-999.0,-999.0,-999,0.00,,,0.00,,2013-10-05 18:42:00,
2013-10-05 14:22:00,71.0,-99.9,-100.00,North,-999,-999.0,-999.0,-999,0.00,,,0.00,,2013-10-05 19:22:00,
2013-10-05 14:32:00,71.0,-99.9,-100.00,North,-999,-999.0,-999.0,-999,0.00,,,0.00,,2013-10-05 19:32:00,
2013-10-05 14:42:00,71.0,-99.9,-100.00,North,-999,-999.0,-999.0,-999,0.00,,,0.00,,2013-10-05 19:42:00,
2013-10-05 15:22:00,74.0,-99.9,-100.00,North,-999,-999.0,-999.0,-999,0.00,,,0.00,,2013-10-05 20:22:00,
2013-10-05 15:32:00,74.0,-99.9,-100.00,North,-999,-999.0,-999.0,-999,0.00,,,0.00,,2013-10-05 20:32:00,
2013-10-05 15:42:00,74.0,-99.9,-100.00,North,-999,-999.0,-999.0,-999,0.00,,,0.00,,2013-10-05 20:42:00,
2013-10-05 16:22:00,61.0,-99.9,-100.00,North,-999,-999.0,-999.0,-999,0.00,,,0.00,,2013-10-05 21:22:00,
2013-10-05 16:34:00,61.0,-99.9,-100.00,North,-999,-999.0,-999.0,-999,0.00,,,0.00,,2013-10-05 21:34:00,
2013-10-05 16:44:00,61.0,-99.9,-100.00,North,-999,-999.0,-999.0,-999,0.00,,,0.00,,2013-10-05 21:44:00,
2013-10-05 17:24:00,56.0,-99.9,-100.00,North,-999,-999.0,-999.0,-999,0.08,,,0.08,,2013-10-05 22:24:00,
2013-10-05 17:33:00,56.0,-99.9,-100.00,North,-999,-999.0,-999.0,-999,0.08,,,0.08,,2013-10-05 22:33:00,
2013-10-05 17:43:00,56.0,-99.9,-100.00,North,-999,-999.0,-999.0,-999,0.08,,,0.08,,2013-10-05 22:43:00,
2013-10-05 18:22:00,55.0,-99.9,-100.00,North,-999,-999.0,-999.0,-999,0.05,,,0.13,,2013-10-05 23:22:00,
2013-10-05 18:34:00,55.0,-99.9,-100.00,North,-999,-999.0,-999.0,-999,0.05,,,0.13,,2013-10-05 23:34:00,
2013-10-05 18:43:00,55.0,-99.9,-100.00,North,-999,-999.0,-999.0,-999,0.05,,,0.13,,2013-10-05 23:43:00,
2013-10-05 20:22:00,53.0,-99.9,-100.00,North,-999,-999.0,-999.0,-999,-99.99,,,0.17,,2013-10-06 01:22:00,
2013-10-05 20:32:00,53.0,-99.9,-100.00,North,-999,-999.0,-999.0,-999,-99.99,,,0.17,,2013-10-06 01:32:00,
2013-10-05 20:42:00,53.0,-99.9,-100.00,North,-999,-999.0,-999.0,-999,-99.99,,,0.17,,2013-10-06 01:42:00,
2013-10-05 21:22:00,53.0,-99.9,-100.00,North,-999,-999.0,-999.0,-999,0.04,,,0.21,,2013-10-06 02:22:00,
2013-10-05 21:32:00,53.0,-99.9,-100.00,North,-999,-999.0,-999.0,-999,0.04,,,0.21,,2013-10-06 02:32:00,
2013-10-05 21:42:00,53.0,-99.9,-100.00,North,-999,-999.0,-999.0,-999,0.04,,,0.21,,2013-10-06 02:42:00,
2013-10-05 21:45:00,53.0,-99.9,-100.00,North,-999,-999.0,-999.0,-999,0.02,,,0.23,,2013-10-06 02:45:00,
2013-10-05 22:22:00,53.0,-99.9,-100.00,North,-999,-999.0,-999.0,-999,0.02,,,0.23,,2013-10-06 03:22:00,
2013-10-05 22:34:00,53.0,-99.9,-100.00,North,-999,-999.0,-999.0,-999,0.02,,,0.23,,2013-10-06 03:34:00,
2013-10-05 23:24:00,53.0,-99.9,-100.00,North,-999,-999.0,-999.0,-999,0.00,,,0.23,,2013-10-06 04:24:00,
2013-10-05 23:34:00,53.0,-99.9,-100.00,North,-999,-999.0,-999.0,-999,0.00,,,0.23,,2013-10-06 04:34:00,
2013-10-05 23:44:00,53.0,-99.9,-100.00,North,-999,-999.0,-999.0,-999,0.00,,,0.23,,2013-10-06 04:44:00,